Home   Weather   Georgetown   Past weeks

Flag for Guyana Past Weather in Georgetown, Guyana — Yesterday and Last 2 Weeks

Now
82 °F

Scattered showers. Passing clouds.


Feels Like: 91 °F
Forecast: 80 / 89 °F
Wind: 5 mph from South

Location: Georgetown/Cheddi Jagan International Airport

Current Time: Oct 19, 2018 at 9:23:14 am

Latest Report: Oct 19, 2018 at 8:00 am


Visibility: N/A

Pressure: 29.83 "Hg

Humidity: 84%

Dew Point: 77 °F

Location of GeorgetownLocation

Past Weather in Georgetown — Graph

°F

Georgetown Temperature Yesterday

Maximum temperature yesterday: 90 °F (at 1:00 pm)
Minimum temperature yesterday: 75 °F (at 2:00 am)
Average temperature yesterday: 81 °F

High & Low Weather Summary for the Past Weeks

 TemperatureHumidityPressure
High95 °F (Oct 14, 1:00 pm)100% (Oct 4, 8:00 pm)29.95 "Hg (Oct 4, 8:00 pm)
Low72 °F (Oct 5, 4:00 am)47% (Oct 7, 1:00 pm)29.71 "Hg (Oct 16, 3:00 pm)
Average82 °F82%29.85 "Hg
* Reported Oct 4 8:00 am — Oct 19 8:00 am, Georgetown. Weather by CustomWeather, © 2018

Note: Actual official high and low records may vary slightly from our data, if they occured in-between our weather recording intervals... More about our weather records

Advertising

Georgetown Weather History for the Previous 24 Hours

Scroll right to see more
 ConditionsComfort  
Time TempWeatherWind HumidityBarometerVisibility
8:00 am
Fri, Oct 19
82 °FScattered showers. Passing clouds.5 mph84%29.83 "HgN/A
7:00 am77 °FPartly sunny.2 mph100%29.83 "HgN/A
6:00 am75 °FBroken clouds.5 mph100%29.80 "Hg5 mi
2:00 am75 °FPassing clouds.2 mph100%29.77 "HgN/A
1:00 am77 °FPassing clouds.5 mph94%29.77 "HgN/A
12:00 am77 °FPassing clouds.5 mph94%29.83 "HgN/A
11:00 pm
Thu, Oct 18
77 °FPassing clouds.2 mph94%29.83 "HgN/A
10:00 pm79 °FPassing clouds.5 mph94%29.83 "HgN/A
9:00 pm79 °FPassing clouds.2 mph94%29.80 "HgN/A
8:00 pm79 °FThunderstorms. Passing clouds.2 mph94%29.80 "HgN/A
7:00 pm79 °FThunderstorms. Passing clouds.2 mph94%29.80 "HgN/A
6:00 pm81 °FThunderstorms. Passing clouds.7 mph89%29.77 "Hg6 mi
5:00 pm82 °FThunderstorms. Scattered clouds.12 mph84%29.74 "Hg5 mi
4:00 pm84 °FThunderstorms. Passing clouds.14 mph74%29.71 "HgN/A
3:00 pm86 °FPassing clouds.14 mph70%29.71 "HgN/A
2:00 pm86 °FScattered clouds.14 mph70%29.71 "HgN/A
1:00 pm90 °FPartly sunny.12 mph71%29.74 "HgN/A
12:16 pm82 °FRain showers. Broken clouds.16 mph89%29.77 "Hg3 mi
11:00 am88 °FPartly sunny.12 mph70%29.80 "HgN/A
10:00 am88 °FPartly sunny.12 mph66%29.83 "HgN/A
Weather by CustomWeather, © 2018

See weather overview